Погода в Томаковке

Украина / Днепропетровская область     47˚48′47″N   34˚44′57″E
темп.,
°C
ветер,
м/с
пор.,
м/с
влажн.,
%
обл.,
%
осадки,
мм/ч
давл.,
гПа
погр.,
м
5 декабря, сб
сб523:00в510800 0.0 1028368
02:00−1˚в611810 0.0 1029362
05:00−2˚в611800 0.0 1029369
08:00−2˚в611751 0.0 1029410
11:00+1˚в610610 0.0 1030549
14:00+3˚в611550 0.0 1029685
17:00+1˚в612630 0.0 1030520
20:00−1˚в613400 0.0 1031475
6 декабря, вс
вс623:00−2˚в612440 0.0 1031434
02:00−3˚всв612410 0.0 1032414
05:00−3˚в613390 0.0 1032425
08:00−3˚всв714390 0.0 1032458
11:00в812320 0.0 1032553
14:00+1˚всв712330 0.0 1031664
17:00−2˚всв613500 0.0 1031545
20:00−4˚в715570 0.0 1032568
7 декабря, пн
пн723:00−5˚в714570 0.0 1032572
02:00−5˚в715560 0.0 1032547
05:00−5˚в815590 0.0 1030592
08:00−5˚в815620 0.0 1030720
11:00−2˚в914538 0.0 1029823
14:00в814514 0.0 1029840
17:00−2˚в815520 0.0 1029649
20:00−3˚в815470 0.0 1029633
8 декабря, вт
вт823:00−4˚в816540 0.0 1028607
02:00−4˚в815600 0.0 1027619
05:00−4˚в815620 0.0 1027625
08:00−4˚в815670 0.0 1027640
11:00вюв914570 0.0 1027721
14:00+2˚вюв914540 0.0 1026776
17:00−1˚в8155717 0.0 1026615
20:00−3˚в815589 0.0 1026589
9 декабря, ср
ср923:00−3˚в7137027 0.0 1026563
02:00−2˚в7117561 0.0 1026628
05:00−2˚в61075100 0.0 1026540
08:00−2˚в61179100 0.0 1026486
11:00+1˚в6976100 0.0 1026550
14:00+2˚вюв61079100 0.0 1026595
17:00+1˚в51082100 0.1 1026444
20:00+1˚в5108881 0.1 1027354